Regional Weather Roundup
Issued by NWS Jackson, KY

Home | Current Version | Previous Version | Text Only | Print | Product List | Glossary Off
Versions: 1 2 3 4 5 6 7 8 9 10 11 12 13 14 15 16 17 18 19 20 21 22 23 24 25 26 27 28

000
ASUS43 KJKL 272210
RWRJKL

EAST KENTUCKY HOURLY WEATHER ROUNDUP
NATIONAL WEATHER SERVICE JACKSON KY
600 PM EDT SAT MAY 27 2017

NOTE: "FAIR" INDICATES FEW OR NO CLOUDS BELOW 12,000 FEET WITH
NO SIGNIFICANT WEATHER AND/OR OBSTRUCTIONS TO VISIBILITY.

* THESE REPORTS ARE NOT UNDER NWS QUALITY CONTROL AND MAY NOT
  REPORT WEATHER SUCH AS PRECIPITATION AND FOG.

KYZ079-080-083-085-087-088-110-112-115-119-120-272300
...EASTERN KENTUCKY...

CITY           SKY/WX    TMP DP  RH WIND       PRES   REMARKS
JACKSON        TSTM      63  62  97 CALM      29.93F VSB 1/4
LONDON         CLOUDY    74  69  85 W5        29.90F
SOMERSET*      CLOUDY    77  68  73 N12       29.90F
MONTICELLO*    MOSUNNY   81  70  69 W18       29.90F
WILLIAMSBURG*  CLOUDY    81  68  65 SW6       29.90F
MIDDLESBORO*   CLOUDY    82  69  64 S9        29.91F
HARLAN APT*    CLOUDY    72  68  88 CALM      29.92F
PIKE CO APT*   TSTM      74  69  81 SW3       29.93R
BIG SANDY APT* LGT RAIN  75  70  84 SW6       29.92R
MOREHEAD APT*  CLOUDY    77  64  65 SW9G17    29.90R
ASHLAND*       CLOUDY    81  70  69 W5        29.84R
$$

KYZ035-036-041-042-044-050-067-078-099-272300
...CENTRAL KENTUCKY...

CITY           SKY/WX    TMP DP  RH WIND       PRES   REMARKS
MT STERLING*   CLOUDY    72  64  78 SW7       29.91R
FLEMING/MASON* CLOUDY    73  68  86 CALM      29.87S
DANVILLE*      CLOUDY    73  70  88 CALM      29.88F
LEXINGTON      TSTM      69  62  78 VRB3      29.86F
FRANKFORT      CLOUDY    76  65  68 SE7       29.85S
LOUISVILLE     CLOUDY    80  71  74 NE7       29.83R THUNDER
LEBANON*         N/A     77  72  83 S6        29.86F
GLASGOW*       CLOUDY    80  69  67 S6        29.85F
BOWLING GREEN  CLOUDY    85  72  65 SW16G22   29.84F HX  91
$$

KYZ091>093-OHZ055-061-077-WVZ005-015-034-035-042-272300
...SOUTHERN OHIO/WEST VIRGINIA...

CITY           SKY/WX    TMP DP  RH WIND       PRES   REMARKS
COVINGTON      PTSUNNY   84  67  56 W10       29.83F
COLUMBUS       PTSUNNY   79  66  64 N7        29.83S
DAYTON         MOSUNNY   78  63  59 N6        29.85S
WILMINGTON     MOSUNNY   80  67  64 VRB6      29.84S
HUNTINGTON     TSTM      77  68  73 S7        29.86S
CHARLESTON     CLOUDY    80  65  59 W12       29.86R
PINEVILLE*     CLOUDY    76  69  77 MISG      29.98S
BECKLEY        MOSUNNY   75  63  66 W8        29.96R
BLUEFIELD      CLOUDY    73  61  65 W8        30.00S
LOGAN CO APT*    N/A     75  66  73 CALM      29.92S
$$

VAZ002-007-008-TNZ017-027-036-066-071-272300
...SOUTHWEST VIRGINIA/EAST TENNESSEE...

CITY           SKY/WX    TMP DP  RH WIND       PRES   REMARKS
WISE*          CLOUDY    72  63  73 CALM      30.00F
JONESVILLE*      N/A     81  66  61 SW12      29.94S
ABINGDON*      MOSUNNY   78  67  67 NW7       29.97F
BRISTOL        PTSUNNY   80  67  64 SW13      29.94F
MORRISTOWN*    PTCLDY    81  68  65 W12G17    29.93F
SEVIERVILLE*   PTCLDY    81  66  61 W6        29.93S
KNOXVILLE      CLOUDY    80  72  76 W3        29.92F
LAFOLLETTE*    MOCLDY    79  70  73 S8        29.94F
OAK RIDGE      CLOUDY    80  67  64 S6        29.94S
CROSSVILLE     CLOUDY    74  68  81 S5        29.97S
NASHVILLE      CLOUDY    75  71  87 SW6       29.88F
$$

...KEY TO REMARKS...
VSB - VISIBILITY IN MILES
WCI - WIND CHILL INDEX
HX  - HEAT INDEX

$$




USA.gov is the U.S. government's official web portal to all federal, state and local government web resources and services.